Location: Wyalusing
(42.9440°N, 91.1410°W)
Time: 22:13:11
(UTC-05:00)

Envisat - Visible Passes

Search period start: 19 July 2018 00:00
Search period end: 29 July 2018 00:00
Orbit: 764 x 766 km, 98.2° (Epoch: 19 July)

Date Brightness Start Highest point End Pass type
(mag) Time Alt. Az. Time Alt. Az. Time Alt. Az.
20 Jul 5.9 21:52:03 10° WSW 21:53:38 11° W 21:55:13 10° WNW visible
21 Jul 5.2 21:12:19 10° SSW 21:16:29 25° W 21:20:41 10° NW visible
23 Jul 5.7 21:39:32 10° WSW 21:42:19 15° W 21:45:07 10° NW visible
24 Jul 4.8 21:00:44 10° SSW 21:05:15 32° W 21:09:47 10° NNW visible
26 Jul 5.6 21:27:32 10° SW 21:31:02 19° W 21:34:33 10° NW visible
28 Jul 6.1 21:56:28 10° W 21:56:55 10° W 21:57:23 10° W visible
